Theta_e
323 327 332 330 329 328 329 331 332 329 325 329 329 327 322 314 319 324 322 323 323 324 322 322 323 326 327 327 326 325 324 321 320 320 319 319 319 318 317 315 314 313 313 312
325 327 327 328 326 328 329 331 329 327 324 328 327 329 324 314 313 317 319 317 320 320 314 315 320 325 326 325 324 323 322 322 320 320 319 319 319 317 316 314 312 312 312 311
321 323 325 328 330 330 330 330 326 328 325 321 322 326 323 315 312 310 311 312 314 319 315 313 315 319 321 322 321 321 322 322 321 320 319 317 317 316 314 313 312 309 308 308
321 318 326 329 329 329 332 327 326 326 328 333 324 335 325 318 312 310 311 310 311 312 312 310 311 312 316 318 320 322 322 322 321 320 318 318 318 316 312 311 304 300 299 297
317 319 327 329 329 327 329 325 326 326 328 327 324 329 328 316 314 312 312 310 310 310 311 310 309 311 312 313 315 316 316 316 316 317 317 316 315 313 310 301 297 295 295 294
315 313 316 321 321 324 321 323 322 322 324 330 328 329 329 318 318 316 312 311 310 309 308 307 308 308 308 309 310 311 311 310 310 311 310 308 305 300 297 295 294 293 292 292
316 317 315 314 322 321 323 326 327 328 327 332 318 326 330 320 315 318 316 311 308 308 307 306 305 304 305 306 306 306 305 303 301 300 299 297 296 295 294 293 292 292 292 292
322 323 313 312 317 323 324 327 329 332 329 326 315 326 326 316 313 312 311 310 308 307 307 306 305 303 303 303 301 300 298 297 297 296 296 295 294 293 292 292 291 291 291 291
320 318 311 313 313 316 320 325 316 316 308 315 317 314 308 307 307 308 309 309 309 308 307 306 304 302 302 300 299 297 297 296 295 295 294 293 292 292 291 291 291 291 291 291
314 318 311 313 314 313 316 314 321 319 325 322 317 311 315 309 308 308 309 309 308 307 306 305 303 301 300 299 297 296 296 295 294 293 292 292 292 291 291 291 291 291 291 292
314 315 314 314 316 317 316 317 316 319 319 320 322 321 305 304 303 306 308 309 308 306 304 304 301 300 299 297 296 294 294 293 293 292 292 292 291 291 291 291 291 292 292 292
313 315 317 314 306 310 313 316 317 324 320 314 313 314 302 303 303 303 307 307 305 303 303 302 300 299 297 296 294 293 293 292 292 292 292 292 291 291 291 292 292 292 292 291
311 310 313 315 312 309 316 314 315 312 309 313 311 315 303 305 307 307 306 304 303 301 299 299 298 297 296 295 294 294 294 293 292 292 292 291 291 292 292 291 291 291 290 289
305 307 310 314 312 310 313 312 313 314 314 313 309 307 306 304 307 307 305 303 302 301 300 299 298 297 295 295 294 293 293 294 293 292 291 291 292 292 291 291 290 290 289 287
302 299 303 305 304 306 308 308 312 316 315 313 314 309 311 307 305 304 305 302 301 301 299 299 299 298 295 294 294 294 294 294 293 293 293 293 292 291 291 290 290 289 287 286
299 299 299 297 300 300 300 303 307 312 313 314 313 313 309 308 303 304 303 302 302 302 301 300 299 299 297 295 295 294 294 293 294 294 294 293 292 290 290 290 288 286 286 286
299 294 294 299 292 292 297 299 303 306 307 311 313 312 308 308 306 304 302 302 303 303 302 300 300 299 299 297 297 295 294 294 294 293 293 292 290 290 290 288 286 285 285 285
290 286 283 293 287 294 299 298 299 302 302 303 304 304 303 304 303 301 301 302 303 303 302 301 300 300 299 299 299 297 295 294 293 292 292 290 290 289 287 285 285 285 284 283
295 293 285 293 282 294 299 295 296 298 297 297 298 298 298 296 297 299 298 299 301 301 302 301 300 299 299 300 299 297 294 293 292 291 289 290 289 287 285 285 284 284 283 281
294 291 292 277 289 292 296 295 294 295 293 294 295 294 294 294 298 297 295 296 298 299 300 300 299 298 299 298 298 295 292 292 290 289 289 288 286 285 284 284 283 282 281 280
299 284 289 281 285 292 293 294 293 293 296 293 293 294 295 296 296 295 292 293 296 297 297 297 296 297 298 297 295 293 291 289 289 289 287 286 284 284 284 283 281 280 279 279
300 295 288 279 287 298 291 293 294 294 293 294 293 293 294 293 293 293 291 292 293 292 294 294 294 294 294 295 294 291 289 288 288 287 286 284 284 284 283 282 280 279 278 278
301 297 297 295 298 293 291 295 293 292 293 294 294 294 294 295 295 293 291 291 290 291 291 292 292 291 291 292 293 290 288 288 287 286 284 284 284 282 282 280 279 278 278 279
291 285 292 295 298 294 291 292 291 292 292 293 292 293 293 294 293 293 292 291 290 289 289 290 289 288 288 289 290 290 288 287 286 284 283 282 283 281 280 279 278 278 278 279
292 292 291 292 297 297 296 294 294 293 292 292 291 291 291 291 292 293 291 290 290 290 290 289 288 287 287 288 288 287 287 286 284 283 282 282 281 280 279 279 278 278 279 279
289 294 298 299 298 298 299 297 294 294 295 294 290 288 286 290 290 292 290 290 290 290 289 289 288 287 286 286 286 286 284 284 284 283 281 280 280 280 279 278 278 278 278 278
Wind_Speed
1 3 11 18 14 8 10 7 8 2 5 4 7 10 10 8 5 7 7 6 7 7 6 10 12 15 14 13 11 14 15 12 12 11 7 6 4 1 3 2 3 3 5 7
5 1 3 11 8 9 16 13 4 4 4 2 2 15 7 7 5 7 10 9 8 5 5 6 8 11 13 13 14 15 14 12 11 9 7 6 5 3 3 2 2 3 5 7
5 1 4 5 8 10 5 14 6 5 5 3 2 6 10 5 4 5 7 6 6 10 8 5 8 10 12 14 16 16 15 12 11 10 10 7 5 5 5 1 3 4 5 5
2 2 14 6 7 5 5 7 11 14 9 4 6 6 7 11 10 8 11 9 7 8 6 5 9 11 13 14 14 14 13 11 10 10 11 10 9 6 3 2 1 3 3 4
2 2 11 15 9 12 0 2 12 8 6 2 5 3 3 4 7 12 16 13 10 9 10 9 12 15 13 14 14 14 13 11 10 10 10 10 9 8 7 4 1 1 3 6
4 1 4 3 5 4 12 6 7 4 3 6 7 8 4 6 10 9 13 15 13 11 8 9 15 16 15 14 15 15 15 14 13 12 12 12 11 10 8 4 1 3 5 6
2 4 2 6 7 3 5 6 2 1 4 6 2 7 12 7 8 12 15 15 11 10 10 10 12 15 19 18 19 19 18 18 15 14 13 11 10 7 4 2 4 6 8 11
3 3 7 6 3 3 6 6 4 6 4 3 2 6 6 4 7 6 6 10 12 11 10 10 14 17 23 23 22 21 20 19 16 13 11 9 7 5 4 4 5 7 9 12
4 2 3 6 4 3 3 3 3 4 2 2 4 5 10 1 5 3 4 10 13 15 14 14 17 21 25 26 25 23 20 17 14 12 10 8 6 5 3 3 5 8 11 15
2 5 3 3 3 9 5 4 4 1 4 4 3 4 5 4 5 6 7 9 11 12 12 11 16 19 25 26 24 20 17 16 14 11 10 7 5 3 2 4 7 11 14 18
2 3 2 1 0 4 3 2 3 2 1 3 1 4 5 7 6 8 9 10 13 14 13 12 15 18 25 25 23 20 17 15 13 11 9 6 3 1 3 7 10 14 17 20
1 3 3 1 1 2 2 2 3 3 4 2 2 5 3 8 8 6 8 9 9 11 11 10 14 21 24 25 23 20 17 15 13 12 8 5 1 2 5 9 12 16 19 21
3 1 3 1 2 2 3 4 2 0 2 4 4 4 1 4 3 4 8 8 10 11 9 8 11 17 22 26 25 21 18 15 13 11 7 4 0 4 7 11 15 17 20 22
2 2 4 5 4 5 5 8 11 4 3 4 5 6 7 5 3 3 5 7 10 11 12 11 9 15 22 27 27 25 20 16 13 10 7 3 1 6 10 13 16 18 20 22
3 2 1 2 4 1 2 4 13 12 10 7 8 12 15 3 5 5 8 8 8 10 11 13 13 14 20 25 27 24 22 19 15 11 7 2 3 7 10 13 16 18 19 22
2 1 1 3 4 4 3 6 10 15 8 15 12 16 9 11 3 4 8 10 12 15 17 16 14 17 21 26 29 26 25 21 17 12 8 4 5 7 10 14 16 18 20 23
2 4 3 4 4 3 5 10 13 6 5 9 8 8 2 4 8 10 9 11 16 18 18 17 17 21 24 29 32 29 25 20 17 12 7 4 5 8 11 14 16 19 21 23
4 4 3 2 4 3 7 1 4 10 9 8 11 11 5 6 6 8 8 11 15 13 13 15 19 23 24 29 27 24 22 20 16 11 7 3 4 7 10 13 17 19 20 21
2 4 3 3 3 6 6 3 6 7 4 3 9 11 10 6 6 13 9 11 14 13 14 17 23 26 32 30 28 25 22 19 15 11 5 1 4 7 10 13 16 17 19 20
5 6 4 3 4 6 5 1 2 2 4 5 3 5 5 4 1 4 7 6 8 6 14 17 21 24 30 29 29 28 24 20 14 9 4 1 3 6 8 12 14 16 17 14
3 3 5 2 2 9 8 4 4 6 6 5 4 3 3 2 5 4 8 7 6 5 10 14 19 25 31 32 31 27 23 17 13 9 5 2 3 5 9 12 14 16 16 16
8 8 4 3 3 9 7 5 7 5 1 3 4 3 3 6 7 6 6 6 5 6 14 18 20 23 29 32 31 27 21 16 12 9 5 4 5 8 10 12 15 17 17 16
3 6 6 9 7 4 7 4 3 3 3 3 3 2 2 3 3 5 4 6 4 6 13 19 25 27 27 27 27 26 21 17 12 9 7 6 7 9 11 13 15 18 17 15
4 3 2 2 5 7 6 6 6 5 7 3 4 3 4 5 5 7 3 2 4 6 11 19 26 23 23 20 19 20 19 15 12 11 9 9 10 11 12 14 16 17 17 15
3 5 6 5 9 3 7 9 7 9 6 7 6 5 7 5 5 4 4 1 3 8 14 24 24 25 25 22 22 20 17 15 14 13 11 11 11 11 13 14 16 17 17 17
6 7 5 6 8 4 2 3 5 6 5 6 4 3 4 5 6 4 5 4 8 13 18 21 23 28 25 23 21 19 17 14 14 14 12 12 12 11 14 17 16 14 15 18
Wind_Direction
126 319 179 170 181 139 143 131 148 134 155 150 218 238 214 200 189 217 229 207 207 214 213 211 213 220 225 220 206 194 189 192 194 198 206 220 222 172 107 89 56 8 344 331
191 70 79 133 115 152 151 174 143 61 107 115 324 262 244 178 212 202 216 213 207 177 193 206 205 195 198 189 180 176 178 181 186 194 191 185 158 149 128 90 51 349 329 325
192 102 154 143 136 153 159 173 167 136 131 42 117 261 246 229 203 210 239 245 191 193 187 187 180 175 167 162 166 170 176 184 193 194 187 169 165 166 165 100 333 336 341 336
172 261 173 168 176 172 163 173 153 134 149 211 189 263 221 206 212 210 222 217 213 189 171 163 171 168 166 159 160 167 172 179 186 192 201 205 213 190 170 287 351 16 3 1
148 202 181 163 177 167 317 156 151 163 149 175 183 264 235 136 227 229 223 212 206 198 170 168 174 172 164 161 160 160 160 161 163 171 177 179 172 171 170 163 151 338 358 352
86 25 19 62 59 136 138 84 49 60 57 247 198 194 232 179 211 231 216 213 193 177 158 153 165 162 155 157 157 158 158 152 150 155 156 163 157 154 155 157 169 16 10 3
35 27 55 29 84 26 113 126 27 136 189 243 350 205 253 247 240 228 214 206 179 162 159 156 161 160 154 158 155 155 155 145 147 150 150 148 145 145 142 106 44 18 5 358
110 147 5 349 23 130 145 161 155 184 195 176 2 236 244 266 293 228 205 178 159 158 161 167 169 163 160 165 162 161 159 151 154 154 151 148 145 131 108 67 32 7 353 343
134 78 315 46 48 347 141 119 85 104 39 69 208 276 287 7 278 310 172 156 169 168 169 171 171 168 169 170 170 169 162 158 159 159 154 151 141 122 91 41 7 351 344 339
110 94 8 12 352 33 60 130 98 22 161 231 245 258 246 325 285 230 192 188 175 169 168 165 170 171 176 175 172 172 169 164 161 158 158 150 134 112 37 3 351 345 340 335
82 81 20 101 160 162 131 151 73 123 174 178 303 260 211 255 261 248 207 184 176 170 171 171 170 175 179 178 176 170 167 166 166 162 163 147 138 74 357 350 344 338 333 332
94 106 103 68 358 353 54 155 160 176 202 240 137 274 220 269 270 231 182 167 163 168 170 166 164 176 184 183 178 173 168 170 171 173 166 155 155 344 337 338 335 334 332 335
196 92 102 36 354 357 225 189 199 135 95 207 160 257 193 328 30 151 156 161 165 163 162 165 169 183 186 189 186 181 180 178 177 180 177 176 208 338 332 334 334 338 339 338
78 151 189 180 162 134 201 203 195 181 164 182 212 282 281 276 328 160 166 168 169 179 180 181 181 190 194 195 192 190 187 187 184 182 184 183 330 325 334 334 339 341 343 340
108 154 345 47 55 6 228 180 190 208 215 196 213 213 246 235 219 203 191 165 171 186 188 192 193 194 195 198 199 197 196 193 192 191 194 215 293 321 330 333 339 342 343 345
33 204 110 354 23 34 300 250 208 218 233 247 261 279 244 263 186 182 193 181 192 202 204 200 195 190 194 197 199 198 200 198 200 202 209 235 293 318 328 332 340 344 347 350
101 129 73 279 359 350 325 226 205 196 222 211 206 242 215 267 234 235 216 200 207 207 206 200 199 195 196 199 201 198 197 196 201 206 208 244 292 321 330 341 346 352 354 357
124 90 55 233 10 359 243 165 196 212 247 228 278 267 257 259 268 261 227 208 223 217 205 206 201 200 198 200 198 194 191 194 195 192 197 231 306 325 342 346 355 358 0 6
33 111 76 130 186 293 284 196 173 169 282 216 234 275 286 291 295 282 226 218 226 208 209 208 199 193 196 193 188 182 180 181 183 181 173 240 318 345 349 355 3 6 8 12
51 49 111 76 140 212 246 194 197 116 308 188 204 277 297 329 232 268 349 307 254 220 186 185 192 188 187 178 175 172 170 174 170 159 162 156 360 357 359 6 14 17 20 17
129 21 158 151 206 283 238 161 148 89 238 174 180 243 273 218 215 290 324 330 333 182 159 172 172 172 174 170 168 166 165 159 157 154 146 94 29 22 17 23 28 29 31 35
163 150 181 87 95 267 154 84 164 214 180 182 204 201 236 255 281 284 319 346 28 120 137 155 155 161 163 162 164 157 152 152 151 146 129 98 56 40 35 36 40 41 43 37
217 184 178 188 207 232 208 180 205 164 176 225 206 203 229 316 316 302 344 18 39 118 136 150 148 145 153 158 161 150 152 153 147 139 123 96 71 56 47 48 53 51 49 34
258 171 172 81 257 230 235 256 232 214 228 225 237 274 270 272 309 317 314 18 80 114 139 148 140 136 138 147 152 152 149 148 142 134 118 98 75 64 62 65 64 61 51 37
188 126 175 268 278 243 233 229 215 234 258 268 259 241 248 253 275 281 301 191 160 153 155 157 147 143 143 147 145 147 147 150 143 131 116 98 85 82 81 80 67 72 63 52
190 177 175 214 220 181 213 173 168 196 218 238 195 290 268 221 243 246 270 227 179 176 168 163 157 153 152 151 147 149 152 157 147 133 125 118 109 97 92 100 95 80 72 63